1,1990010100,148.3,-41.73,979.79,103.0999985,-162.1100006,NaN
1,1990010106,149.56,-41.98,979.22,149.4600067,-82.80999756,0.5500000119
1,1990010112,150.78,-41.89,978.84,107.9599991,13.47999954,-12.61999989
1,1990010118,149.13,-40.54,983.18,167.9100037,78.01000214,-9.25
1,1990010200,151.92,-39.23,982.28,74,8.75,-16.07999992
2,1990010100,155.26,-41.31,980.62,-149.3099976,-256.8099976,NaN
2,1990010106,154.91,-43.06,976.1,57.99000168,-205.9199982,34.65999985
2,1990010112,153.69,-43.56,973.75,110.9400024,-110.3700027,11.35999966
2,1990010118,152.65,-43.11,972.08,137.0399933,-35.29000092,-3.890000105
2,1990010200,152.77,-41.85,972.21,119.1200027,-0.3199999928,-16.32999992
2,1990010206,154.9,-40.99,974.01,62.15000153,27.55999947,-5.760000229
2,1990010212,157.58,-41.06,974.07,30.27000046,1.100000024,10.01000023
2,1990010218,160.26,-41.78,975.77,-36.91999817,-52.90000153,19.95000076
2,1990010300,162.85,-42.03,978.35,-100.1399994,-99.01000214,21.95000076
2,1990010306,165.85,-42.22,981.29,-76.70999908,-186.8399963,14.97000027
2,1990010312,169.35,-43,982.33,-96.98999786,-289.6400146,24.96999931
2,1990010318,170.86,-42.95,987.45,-93.01999664,-312.269989,43.61000061
3,1990010100,157.5,-38.54,985.52,-225.5299988,-309.5599976,NaN
3,1990010106,160.84,-41.48,981.06,-125.8199997,-279.7099915,23.45000076
3,1990010112,162.37,-43.8,974.83,3.730000019,-217.2899933,18.15999985
4,1990011012,143.33,-34.15,999.13,-351.4400024,-337.769989,NaN
4,1990011018,145.29,-35.8,996.24,-260.7200012,-338.0700073,83.95999908
4,1990011100,147.98,-37.8,993.65,-264.5400085,-333.7000122,85.83000183
4,1990011106,147.6,-39.41,989.79,-105.0500031,-300.7000122,67
4,1990011112,149.03,-40.54,984.78,-44.83000183,-256.2900085,60.68000031
4,1990011118,149.9,-42.15,980.79,-15.43999958,-218.1399994,60.70000076
4,1990011200,150.99,-43.18,978.07,33.25,-207.5599976,40.97999954
4,1990011206,152.23,-44.03,976.35,105.0299988,-188.0399933,22.46999931
4,1990011212,154.05,-44.5,975.17,75.30000305,-155.1300049,4.369999886
4,1990011218,167.39,-42.36,990.76,-238.1000061,-357.4400024,15.40999985
5,1990011118,158.12,-35.71,996.83,-124.8899994,-253.2799988,NaN
5,1990011200,160.97,-38.94,993.65,-132.1399994,-228.0899963,19.42000008
5,1990011206,163.59,-41.86,991.5,-121.8099976,-229.0899963,18.01000023
5,1990011212,165.72,-44.28,989.99,-165.1499939,-316.3200073,28
5,1990011218,170.41,-44.22,993.69,-110.0299988,-272.6700134,40.13999939
6,1990013000,147.88,-37.02,992.65,-424.8299866,-124.9400024,NaN
6,1990013006,151.02,-34.63,989.27,-331.4100037,-62.20999908,54.18000031
6,1990013012,153.28,-34.05,989.35,-327.1099854,-90.19999695,54.00999832
6,1990013018,156.33,-33.39,991.27,-317.8800049,-87.66999817,51.29000092
6,1990013100,159.95,-33.58,992.63,-402.3800049,-116.7900009,74.38999939
6,1990013106,155.08,-30.02,996.83,-184.5800018,-76.19999695,-28.23999977
6,1990013112,155.61,-29.01,998.16,-198.4600067,-66.68000031,16.60000038
6,1990013118,148.71,-27.62,996.87,-75.73000336,-36.83000183,-34.36999893
6,1990020100,149.16,-26.93,999.4,-68.48000336,-19.29000092,19.95999908
6,1990020106,144.2,-23.28,998.09,53.61000061,-13.68999958,-22.97999954
7,1990030106,122.44,-26.05,1002.91,-120.6600037,-140.8699951,NaN
7,1990030112,125.76,-27.34,1002.73,-136.0599976,-163.2299957,47.97000122
7,1990030118,127.32,-27.75,1003.56,-151.9400024,-197.5299988,37.45000076
7,1990030200,129.15,-29.36,1002.84,-177.1999969,-241.9799957,42.27999878
7,1990030206,131.81,-31.04,998.58,-265.3699951,-267.6799927,63.31999969
7,1990030212,134.29,-32.45,998.6,-321.6700134,-282.730011,68.41000366
7,1990030218,136.89,-33.56,998.45,-292.6400146,-273.3299866,66.58000183
7,1990030300,138.29,-34.53,1000.09,-320.3399963,-282.0599976,69.80999756
7,1990030306,141.63,-34.84,996.27,-331.3399963,-281.6600037,64.47000122
7,1990030312,144.27,-35.18,996.08,-280.0799866,-291.3699951,60.40999985
7,1990030318,145.66,-35.97,998.11,-283.2600098,-326.8299866,64.65000153
7,1990030400,150.46,-38.27,999.54,-309.980011,-330.0799866,61.77000046
7,1990030406,154.74,-39.17,997.49,-187.3899994,-305.1799927,58.95000076
7,1990030412,158.76,-39.25,996.06,-125.2200012,-305.7200012,69.94999695
7,1990030418,162.08,-39.9,992.83,-74.98000336,-233.0500031,66.45999908
7,1990030500,164.6,-40.22,991.35,-76.73000336,-234.3699951,70.69000244
7,1990030506,167.23,-40.59,992.84,-110.0400009,-227.0399933,69.44000244
7,1990030512,169.82,-41.24,991.88,-82.08000183,-227.5099945,57.00999832
7,1990030518,173.06,-42.34,992.02,-53.74000168,-179.4700012,49.00999832
7,1990030600,174.92,-43.49,990.72,42.58000183,-110.2900009,40.04999924
8,1990031306,147.76,-38.48,999.83,-361.7600098,-372.8299866,NaN
8,1990031312,153.53,-39.98,996.09,-433.8599854,-435.1600037,87.33000183
8,1990031318,160.34,-41.91,990.57,-359.269989,-403.1900024,81.44000244
8,1990031400,165.71,-44.84,978.29,-184.8600006,-337.8099976,67.76000214
8,1990031406,173.06,-43.35,985.62,-133,-203.1199951,19.43000031
9,1990041918,151.14,-32.84,1011.54,-79.12000275,-173.9700012,NaN
9,1990042000,151.01,-33.91,1008.39,13.61999989,-171.9199982,14.89999962
9,1990042006,151.73,-34.4,1006.83,-4.460000038,-176.7899933,32.72000122
9,1990042012,154.6,-35.91,1004.16,58.90000153,-178.1600037,33.88999939
9,1990042018,155.43,-37.22,1002.81,40.36999893,-189.3399963,30.59000015
9,1990042100,156.52,-37.6,1003.77,-46.45999908,-219.8699951,48.95000076
9,1990042106,158.5,-37.33,1005.83,-72.54000092,-225.4400024,33.61999893
9,1990042112,161.1,-37.26,1007.76,-99.68000031,-208.1300049,32.40000153
9,1990042118,163.41,-38.05,1009.83,-87.98999786,-200.7200012,37.34000015
10,1990042018,154.07,-34.9,1006.13,-38.77999878,-173.5800018,NaN
10,1990042100,160.39,-38.68,1007.3,-5.309999943,-152.1900024,36.93000031
10,1990042106,162,-40.64,1004.8,-45.27000046,-221.7400055,37.13000107
10,1990042112,164.83,-42.29,1002.47,-22.04999924,-235.4199982,55.56999969
10,1990042118,166.43,-43.03,1003.15,-62.25,-236.9199982,58.43000031
10,1990042200,167.95,-43.47,1003.15,-58.34000015,-233.7299957,57.52000046
10,1990042206,168.85,-43.16,1005.35,-84.54000092,-204.1199951,34.47999954
11,1990050512,155.51,-39.55,1005.39,-193.0099945,-311.9700012,NaN
11,1990050518,159.79,-40.84,1000.57,-139.0399933,-303.0700073,34.18000031
11,1990050600,163.43,-41.86,995.15,-57.47999954,-200.1399994,29.95999908
11,1990050606,165.82,-42.08,992.84,14.17000008,-167.0899963,24.72999954
11,1990050612,168.13,-41.58,992.35,30.71999931,-211.3200073,15.06000042
11,1990050618,170.43,-40.73,993.65,-11.68999958,-240.9900055,14.85999966
11,1990050700,172.68,-39.86,994.48,-101.5400009,-248.3899994,24.64999962
12,1990050700,152.88,-40.66,992.08,-264.1000061,-305.3200073,NaN
12,1990050706,156.85,-42.02,988.32,-205.1999969,-275.9100037,32.27999878
12,1990050712,162.03,-40.59,989.69,-204.0200043,-277.2200012,10.22000027
12,1990050718,165.09,-42.06,988.72,-112.3799973,-238.8300018,20.62000084
12,1990050800,170.12,-40.7,990.97,-105.9599991,-298.9400024,22.62999916
12,1990050806,173.92,-40.51,992.93,-90.44999695,-301.9700012,31.69000053
12,1990050812,170.02,-43.71,989.93,16.78000069,-75.43000031,-10.26000023
12,1990050818,169.01,-43.75,991.2,56.5,10.47000027,-9.710000038
12,1990050900,166.33,-44.95,996.76,127.4400024,22.43000031,4.659999847
12,1990050906,167.27,-43.57,1000.41,126.3899994,-4.210000038,-4.130000114
12,1990050912,168.29,-41.74,1003.14,73.61000061,-73.66999817,1.210000038
12,1990050918,168.8,-40.01,1008.28,44,-195.5500031,3.890000105
13,1990051312,131.08,-44.24,997.13,-339.7000122,-375.7900085,NaN
13,1990051318,137.79,-41.26,997.52,-290.980011,-359.3500061,59.24000168
13,1990051400,144.27,-40.26,993.84,-255.8200073,-332.0299988,54.13000107
13,1990051406,150.19,-40.38,990.16,-169,-307.2000122,43.84000015
13,1990051412,155.11,-40.71,985.59,-67.87999725,-254.3099976,25.69000053
13,1990051418,158.96,-41.21,984.66,2.359999895,-239.3099976,15.18999958
13,1990051500,162.65,-41.29,986.59,-68.86000061,-207.2200012,22.11000061
13,1990051506,166.75,-41.74,988.69,-128.8699951,-209.8099976,29.81999969
13,1990051512,171.06,-43.21,990.49,-163.6799927,-182.0399933,38.09000015
14,1990052406,154.44,-23.49,1007.24,37.70000076,-166.7799988,NaN
14,1990052412,152.5,-24.73,1004.07,117.25,-70.16000366,-4.139999866
14,1990052418,151.14,-23.98,1003.41,112.5599976,-164.3399963,-10.17000008
14,1990052500,150.42,-22.95,1005.85,56.52000046,-181.7899933,10.18999958
15,1990052900,154.94,-24.89,1009.72,-48.54999924,-34.86999893,NaN
15,1990052906,155.04,-27.64,1006.55,-11.64000034,-5.769999981,6.400000095
15,1990052912,155.43,-30.36,1002.28,-7.78000021,-10.67000008,16.84000015
15,1990052918,156.78,-33.22,999.7,-63.52000046,-35.88999939,23.05999947
15,1990053000,158.98,-36.72,997.99,-144.7400055,-86.80000305,31.73999977
15,1990053006,161.4,-40.75,993.88,-177.7100067,-128.2100067,45.81000137
15,1990053012,164.92,-43.86,989.15,-96.48000336,-173.1100006,48.86999893
16,1990071500,152.86,-29.75,1016.94,-95.41000366,-317.9500122,NaN
16,1990071506,152.66,-31.72,1013.69,-30.79999924,-374.1700134,13.72000027
16,1990071512,152,-34.06,1009.57,64.22000122,-448.5400085,12.31999969
16,1990071518,152.09,-35.66,1006.15,71.26999664,-443.230011,12.10999966
16,1990071600,153.44,-37.33,1003.99,11.28999996,-396.5899963,21.94000053
16,1990071606,156.45,-40.2,1003.64,-100.9100037,-202.2799988,25.26000023
16,1990071612,159.93,-43.18,999.81,-209.1399994,-172.3399963,43.06999969
16,1990071618,162.31,-42.21,1002.16,-86.54000092,-143.5399933,9.529999733
16,1990071700,165.17,-39.43,1005.16,-70.81999969,-176.9499969,-0.2899999917
16,1990071706,167.53,-38.15,1008.02,-49.31000137,-180.6999969,7.420000076
17,1990081000,155.79,-35.22,1007.14,-105.5699997,-212.4299927,NaN
17,1990081006,158.09,-36.98,1003.43,-127,-215.6600037,36.65999985
17,1990081012,160.39,-38.9,1000.83,-147.5299988,-208.8999939,38.97000122
17,1990081018,164.01,-40.32,1000.12,-148.1600037,-228.0700073,46.38999939
17,1990081100,166.93,-41.52,998.36,-139.8099976,-271.1099854,48.56000137
17,1990081106,167.71,-42.07,996.92,-126,-327.5100098,41.38999939
17,1990081112,167.58,-42.13,994.46,-83.44999695,-291.8299866,-35.88999939
17,1990081118,167.18,-41.9,994.05,-53.31000137,-263.7000122,-37.33000183
17,1990081200,166.87,-41.71,991.56,11.64000034,-280.25,-36.36000061
17,1990081206,167.15,-41.47,990.05,61.40999985,-178.0800018,9
17,1990081212,167.89,-41.23,988.92,34.45000076,-181.7299957,23.81999969
17,1990081218,168.72,-41.01,990.98,26.98999977,-184.5500031,24.03000069
17,1990081300,169.62,-40.87,992.05,43.83000183,-153.6999969,26.04999924
17,1990081306,170.21,-40.99,994.23,46.58000183,-121.2099991,30.81999969
17,1990081312,170.46,-41.34,995.93,53.11000061,-98.52999878,20.65999985
17,1990081318,170.4,-41.92,998.81,42.52999878,-95.36000061,6.070000172
17,1990081400,170.46,-43.43,1000.32,39.93999863,-85.48999786,8.859999657
17,1990081406,170.4,-43.93,1002.35,-35.70999908,-77.19999695,2.420000076
17,1990081412,170.46,-44.17,1003.82,-74.75,-65.55999756,6.360000134
18,1990090518,130.95,-38.83,998.86,-252.0700073,-295.6000061,NaN
18,1990090600,134.94,-38.21,997.98,-272.8699951,-301.9400024,39.25
18,1990090606,141.64,-40.34,990.14,-232.1199951,-246.0800018,43.99000168
18,1990090612,146.36,-42.43,985.27,-179.1399994,-180.9400024,34.65000153
18,1990090618,148.08,-44.73,982.66,-152.3999939,-155.7599945,47.15999985
18,1990090700,154.69,-41.48,988.09,-106.5199966,-217.2899933,-24.29999924
18,1990090706,158.81,-38.61,992.91,-130.8200073,-273.2999878,-16.84000015
18,1990090712,161.04,-39.22,990.2,-106.2200012,-256.3299866,15.75
18,1990090718,161.01,-42.82,986.01,-53.09999847,-258.5299988,36.31999969
19,1990092812,155.58,-26.74,1012.9,-61.65999985,-243.9499969,NaN
19,1990092818,156.1,-26.21,1011.65,-37.22999954,-279.3999939,0.3000000119
19,1990092900,156.58,-26.27,1010.7,-19.79999924,-281.6900024,19.63999939
19,1990092906,156.97,-27.06,1009.69,2.200000048,-237.3300018,23.80999947
19,1990092912,157.75,-27.49,1007.08,7.320000172,-189.3300018,16.12999916
19,1990092918,158.3,-28.07,1006.74,12.84000015,-143.9199982,11.64000034
19,1990093000,159.02,-28.01,1006.56,-18.68000031,-137.3600006,8.840000153
19,1990093006,160.5,-28.18,1007.08,-83.37000275,-148.2400055,17.70000076
19,1990093012,162.16,-28.73,1007.31,-89.26999664,-156.0599976,20.57999992
20,1990092906,121.58,-28.7,1009.95,-223.0899963,-137.1499939,NaN
20,1990092912,123.41,-28.44,1010.47,-163.2700043,-126.9899979,30.87999916
20,1990092918,126.14,-27.75,1012.31,-94.76999664,-171.5899963,17.43000031
20,1990093000,133.53,-31.36,1012.59,-290.3800049,-198.7299957,50.25999832
20,1990093006,134.47,-28.9,1008.69,-203.9600067,-160.7599945,21.57999992
20,1990093012,138.03,-29.26,1008.7,-298.6499939,-204.1300049,55.20999908
20,1990093018,138.61,-28.77,1009.04,-339.9500122,-262.3500061,56.45000076
20,1990100100,140.46,-27.45,1009.86,-317.2999878,-273.0700073,55.16999817
20,1990100106,143.32,-26.7,1006.84,-328.1700134,-286.230011,71.48999786
20,1990100112,146.27,-25.87,1006.29,-297.1900024,-276.2099915,55.54999924
20,1990100118,150.49,-26.8,1005.9,-361.7099915,-343.4200134,79.55999756
20,1990100200,154.51,-30.14,1004.77,-312.8500061,-333.0400085,72.15000153
20,1990100206,154.93,-31.3,999.62,-160.9900055,-283.0799866,65.55999756
20,1990100212,156,-32.9,994.9,-43.63000107,-149.7400055,55.50999832
20,1990100218,155.55,-33.55,991.24,136.7799988,-96.87000275,31.54000092
20,1990100300,156.5,-32.75,988.02,72.12999725,-178.8899994,-17.64999962
20,1990100306,157.76,-33.89,987.41,33.08000183,-111.8499985,36.54999924
20,1990100312,157.49,-34.36,986.19,166.5500031,-26.56999969,28.51000023
20,1990100318,157.08,-33.19,986.94,158.0299988,-109.2600021,-22.72999954
20,1990100400,158.41,-31.98,988.42,113.2200012,-258.8200073,-5.96999979
20,1990100406,160.94,-32.67,989.54,82.37000275,-261.7799988,5.329999924
20,1990100412,162.65,-33.44,988.65,61.77000046,-231.0099945,11.52000046
20,1990100418,163.76,-34.28,988.1,22.85000038,-145.5800018,17.78000069
20,1990100500,164.76,-34.8,987.66,-0.009999999776,-111.9000015,22.27000046
20,1990100506,166.45,-35.53,988.96,-11.84000015,-82.51999664,21.07999992
20,1990100512,168.17,-36.25,989.25,-3.019999981,-56.43000031,20.96999931
20,1990100518,169.63,-36.19,990.78,9.739999771,-80.87000275,17.45999908
20,1990100600,172.07,-36.11,992.7,-4.559999943,-150.2200012,20.30999947
21,1990100206,154.21,-28.33,1002.35,-266.3699951,-376.4899902,NaN
21,1990100212,153.96,-30.9,995.69,-51.41999817,-281.7399902,64.11000061
21,1990100218,155.65,-31.17,993.65,-42.33000183,-247.5500031,21.45999908
21,1990100300,157.93,-30.96,992.57,-106.7099991,-288.6199951,1.409999967
21,1990100306,160.11,-31.92,992.96,-67.01000214,-299.4500122,4.400000095
21,1990100312,154.59,-36.33,1000.58,247.7599945,103.9300003,18.19000053
21,1990100318,154.19,-34.06,997.44,251.9499969,74.37999725,-52.63000107
22,1990100700,144.16,-32.95,1009.18,-200.5299988,-344.1900024,NaN
22,1990100706,146.63,-34.11,1005.91,-225.5399933,-326.269989,46.00999832
22,1990100712,150.77,-35.48,1005.56,-200.7899933,-337.7099915,42.61999893
22,1990100718,152.58,-36.85,1005.03,-221.1600037,-286.3099976,53.66999817
22,1990100800,155.87,-38.1,1004.05,-170.3699951,-192.6999969,46.65999985
22,1990100806,159.01,-40,1002.21,-60.93000031,-138.1799927,34.93000031
22,1990100812,161.59,-41.38,1000.35,10.31999969,-98.51000214,21.37999916
22,1990100818,163.64,-42.02,1000.26,22.18000031,-33.83000183,7.110000134
22,1990100900,166.13,-42.33,1000.2,9.050000191,-11.36999989,-0.5699999928
22,1990100906,167.96,-43.03,1000.93,11.18999958,-21.14999962,6.610000134
22,1990100912,170.35,-41.23,1000.88,32.68999863,-72.68000031,-12.05000019
22,1990100918,172.35,-41.02,1001.47,34.77000046,-73.97000122,-2.700000048
22,1990101000,173.47,-41.11,999.85,46.65000153,-62.04999924,1.840000033
23,1990101818,141.58,-23.76,1007.77,-117.0500031,-139.8399963,NaN
23,1990101900,145.03,-26.9,1011.63,-135.0500031,-103.2200012,30.13999939
23,1990101906,147.18,-28.71,1010.04,-90.37000275,-76.13999939,28.94000053
23,1990101912,146.78,-32.29,1007.76,-55.43000031,-180.1600037,4.610000134
23,1990101918,147.87,-33.22,1005.97,-57.52999878,-165.6100006,34.36000061
23,1990102000,150.42,-34.21,1003.75,-51.5,-156.8500061,45.95000076
23,1990102006,151.33,-35.73,1001.36,0.2599999905,-173.3399963,37.93999863
23,1990102012,151.85,-36.61,998.89,-11.46000004,-186.3300018,51.13000107
23,1990102018,152.67,-37.78,997.16,-13.09000015,-176.6100006,54.18000031
23,1990102100,153.16,-38.7,995.72,1.019999981,-174.6300049,55.31000137
23,1990102106,153.68,-39.34,994.51,51.61000061,-171.0500031,49.24000168
23,1990102112,154.55,-39.55,993.43,113.3499985,-129.0700073,17.77000046
23,1990102118,155.65,-39.48,993.17,92.73999786,-87.37000275,0.2899999917
23,1990102200,157.06,-39.49,993.03,64.80999756,-45.56000137,7.309999943
23,1990102206,158.61,-39.67,993.21,36.77999878,-60.84000015,16.06999969
23,1990102212,160.21,-39.98,993.71,-1.639999986,-72.76000214,21.95000076
23,1990102218,161.48,-40.7,994.43,-7.28000021,-76.37999725,23.98999977
23,1990102300,162.22,-41.08,994.29,19.43000031,-82.98000336,22.95000076
23,1990102306,162.61,-41.26,994.59,44.88000107,-59.27000046,16.93000031
23,1990102312,162.84,-41.24,994.12,47.52999878,-31.48999977,2.269999981
23,1990102318,163.02,-41.25,994.75,51.61000061,-23.40999985,-0.1199999973
23,1990102400,163.42,-41.11,993.9,68,-16.92000008,-5.090000153
23,1990102406,164.56,-40.94,994.4,63.08000183,-20.65999985,-5.820000172
23,1990102412,166.02,-40.8,994.5,39.40000153,-14.17000008,-4.460000038
23,1990102418,167.86,-41.07,995.11,9.779999733,-8.600000381,-0.4099999964
23,1990102500,169.67,-40.11,996.18,44.40999985,-13.94999981,-5.159999847
24,1990111200,111.01,-38.81,1008.54,-220.3399963,-182.6000061,NaN
24,1990111206,114.42,-38.77,1007.88,-211.2299957,-196.9600067,51.20999908
24,1990111212,118.07,-38.71,1007.87,-217.0700073,-193.4299927,50.63999939
24,1990111218,121.19,-38.86,1007.37,-207.7899933,-170.2400055,50.83000183
24,1990111300,123.76,-38.77,1007.7,-201.8899994,-138.7700043,49.34000015
24,1990111306,126.05,-38.64,1007.48,-185.4299927,-130.9100037,44.52000046
24,1990111312,129.61,-39.42,1007.63,-198.4299927,-137.9499969,46.61999893
24,1990111318,131.43,-38.82,1007.76,-210.0899963,-119.0599976,39.59000015
24,1990111400,133.36,-38.48,1008.91,-215.0800018,-131.1399994,44.49000168
24,1990111406,146.27,-34.63,1004.28,-229.5700073,-216.9299927,47.33000183
24,1990111412,155.27,-33.14,1003.66,-103.2300034,-200.2100067,34.43000031
24,1990111418,159.19,-35.87,1000.04,-38.93000031,-180.3300018,14.39999962
24,1990111500,161.68,-37.58,996.11,-10.22000027,-187.5599976,32.72999954
24,1990111506,163.59,-39.41,993.6,35.13000107,-171.8200073,45.84000015
24,1990111512,165.78,-39.75,994.03,21.79000092,-127.8399963,59.93000031
24,1990111518,167.72,-40.09,994.83,-20.17000008,-77.33000183,46.47000122
24,1990111600,168.93,-39.69,995.26,-25.39999962,-94.23000336,4.949999809
24,1990111606,170.48,-39.86,997.1,-43.84999847,-162.5299988,27.53000069
24,1990111612,171.41,-39.38,999.34,16.37999916,-193.6600037,-2.660000086
24,1990111618,171.32,-38.09,1002.37,42.40999985,-197.4900055,-24.06999969
24,1990111700,171.04,-36.35,1002.34,21.10000038,-197.8999939,-26.92000008
24,1990111706,170.84,-34.58,1002.42,-5.170000076,-97.90000153,-14.93000031
24,1990111712,171.39,-32.71,1001.3,2.480000019,-142.6000061,-0.4699999988
24,1990111718,172.98,-31.65,1001.59,-55.84999847,-208.2599945,10.47999954
25,1991011100,137.7,-26.69,1003.91,-61.91999817,-53.79999924,NaN
25,1991011106,141.62,-29.11,1000.2,-119.0100021,-52.36999893,27.04000092
25,1991011112,145.31,-31.28,999.07,-118.8300018,-66.22000122,36.40000153
25,1991011118,146.87,-29.34,1002.25,-150.5700073,-57.63000107,-5.079999924
25,1991011200,151.28,-32.94,999.28,-141.2599945,-160.2400055,30.88999939
25,1991011206,155.16,-37.96,995.27,-164.8200073,-208.5599976,56.09000015
25,1991011212,161.29,-44.53,988.54,-137.3699951,-300.1499939,73.84999847
25,1991011218,162.27,-44.8,983.53,-83.86000061,-318.7200012,65.97000122
26,1991011312,174.73,-12.74,1000.71,84.63999939,19.94000053,NaN
26,1991011318,173.99,-13.43,1001.37,79.94999695,29.45000076,11.14000034
26,1991011400,173.27,-14.1,1000.28,76.95999908,40.52000046,8.079999924
26,1991011406,172.39,-14.61,1000.17,79.5,30.34000015,4.75
26,1991011412,171.86,-15.25,999,65.08999634,46.40999985,5.829999924
26,1991011418,170.96,-15.99,997.96,92.30999756,68.81999969,6.510000229
26,1991011500,169.84,-16.3,997.79,20.96999931,66.86000061,8.06000042
26,1991011506,169.06,-17.22,998.39,44.31000137,69.47000122,-5.099999905
26,1991011512,167.74,-18.03,998.72,53.47999954,56.88000107,-3.450000048
26,1991011518,166.12,-19.02,998.84,50.88999939,42.47000122,-5.599999905
26,1991011600,164.39,-19.86,999.48,45.52999878,30.72999954,-1.129999995
26,1991011606,163.44,-20.13,998.6,47.91999817,45.02000046,6.340000153
26,1991011612,163.05,-20.64,997.06,59.33000183,56.68000031,-4.039999962
26,1991011618,163.02,-21.56,997.85,100.6500015,66.58999634,-15.60000038
26,1991011700,162.37,-22.67,998.34,125.0299988,28.38999939,-21.34000015
26,1991011706,161.78,-23.3,999.72,122.9800034,17.95999908,-21.92000008
26,1991011712,161.49,-23.44,1000.37,83.26999664,31.97999954,-18.59000015
26,1991011718,161.04,-23.57,1000.91,98.41000366,11.05000019,-19.88999939
26,1991011800,160.49,-23.98,1000.07,96.27999878,19.22999954,-21.12999916
26,1991011806,159.74,-24.19,1000.01,105.7300034,29.61000061,-17.23999977
26,1991011812,158.95,-24.08,1000.88,92.66000366,29.75,-11.31000042
26,1991011818,158.23,-23.98,1002.75,75.04000092,29.63999939,-7.21999979
26,1991011900,157.35,-23.89,1003.84,59.18999863,27.46999931,-9.239999771
26,1991011906,156.57,-23.64,1004.49,59.54999924,34.45000076,-9.949999809
26,1991011912,155.6,-23.3,1004.62,66.01999664,18.47999954,-10.72999954
26,1991011918,154.48,-22.93,1005.39,65.69999695,10.84000015,-9.979999542
26,1991012000,153.43,-22.98,1005.55,44.5,13.61999989,-11.48999977
27,1991012312,125.95,-10.29,992.9,41.41999817,84.75,NaN
27,1991012318,125.81,-11.01,991.63,58.09000015,80.5,17.19000053
27,1991012400,125.29,-11.7,989.97,37.11999893,95.63999939,17.29999924
27,1991012406,124.71,-12.04,988.45,74.37000275,83,11.43000031
27,1991012412,124.43,-12.65,988.73,95.01000214,88.19000244,11.47000027
27,1991012418,123.57,-13.48,987.12,25.86000061,134.7400055,17.29999924
27,1991012500,122.67,-14.18,985.22,23.37000084,145.8099976,12.63000011
27,1991012506,121.97,-14.85,982.26,55.25,123.6699982,8.06000042
27,1991012512,121.5,-15.67,979.47,50.59000015,140.2299957,3.059999943
27,1991012518,121.06,-16.38,977.01,68.05999756,165.4199982,-0.5600000024
27,1991012600,120.68,-17.11,976.04,96.69999695,160.2700043,-2.640000105
27,1991012606,120.37,-18.09,973.34,79.51999664,156.3399963,0.09000000358
27,1991012612,120.13,-18.89,972.64,47.90999985,162.2899933,-1.370000005
27,1991012618,120.13,-19.93,972.62,73.41999817,160.1399994,-1.210000038
27,1991012700,120.15,-20.95,976.74,67.94999695,156.3300018,-6.889999866
27,1991012706,120.44,-22.18,977.72,76.83999634,133.5599976,-5.090000153
27,1991012712,121.21,-23.53,980.21,34.04000092,117.8899994,-2.549999952
27,1991012718,122.36,-24.88,982.24,21.27000046,129.2299957,1.279999971
27,1991012800,124.12,-26.99,984.78,-11.93000031,45.34000015,17.37000084
27,1991012806,127.21,-29.33,983.3,-70.09999847,-54.27000046,40.74000168
27,1991012812,131.91,-32.7,985.44,-203.0399933,-22.35000038,52.02999878
27,1991012818,136.95,-35.77,988.64,-265.9500122,-15.46000004,48.24000168
27,1991012900,142.24,-39.75,987.7,-271.269989,-69.40000153,69.29000092
27,1991012906,149.32,-42.21,988.83,-270.8699951,-62.20999908,58.65000153
27,1991012912,151.64,-36.43,1002.2,-91.11000061,-69.36000061,-7.519999981
28,1991013012,128.82,-16.9,997.96,29,35.29999924,NaN
28,1991013018,128.58,-17.61,995.73,27.17000008,75.69999695,-8.029999733
28,1991013100,127.44,-18.07,995.69,42.63000107,65.12999725,3.089999914
28,1991013106,126.58,-18.81,993.07,10.52999973,70.66999817,3.339999914
28,1991013112,125.74,-19.28,992.15,42.65000153,99.41000366,2.799999952
28,1991013118,124.57,-19.01,989.44,50.04000092,101.7099991,8.510000229
28,1991020100,123.68,-18.89,988.62,60.29000092,128.2400055,8.039999962